Weather History for KWDG - April, 2013

Change the Weather History Date:

Thursday, April 4, 2013

  Actual Average Record
Temperature  
Mean Temperature 44 °F -  
Max Temperature 53 °F 64 °F 78 °F (2009)
Min Temperature 35 °F 44 °F 28 °F (2002)
Degree Days  
Heating Degree Days 21    
Moisture  
Dew Point 37 °F    
Average Humidity 92    
Maximum Humidity 100    
Minimum Humidity 62    
Precipitation  
Precipitation 0.08 in - - ()
Sea Level Pressure  
Sea Level Pressure 30.19 in    
Wind  
Wind Speed 7 mph (NNW)    
Max Wind Speed 10 mph    
Max Gust Speed -    
Visibility 7 miles    
Events Rain    
Averages and records for this station are not official NWS values.
T = Trace of Precipitation, MM = Missing Value Source: NWS Daily Summary

Daily Weather History Graph

Daily Weather History Graph

Search for Another Location

Airport or City:

Trip Planner

Search our weather history database for the weather conditions in past years. The results will help you decide how hot, cold, wet, or windy it might be!

Date:

Astronomy

Apr. 04, 2013 Rise Set
Actual Time 7:12 AM CDT 7:56 PM CDT
Civil Twilight 6:46 AM CDT 8:22 PM CDT
Nautical Twilight 6:15 AM CDT 8:52 PM CDT
Astronomical Twilight 5:44 AM CDT 9:24 PM CDT
Moon 3:30 AM CDT (4/4) 2:24 PM CDT (4/4)
Length of Visible Light 13h 35m
Length of Day
12h 43m
Waning Crescent, 33% of the Moon is Illuminated
Apr 4
Waning Crescent
Apr 10
New
Apr 18
First Quarter
Apr 25
Full
May 2
Last Quarter

Hourly Weather History & Observations

Time (CDT) Temp. Windchill Dew Point Humidity Pressure Visibility Wind Dir Wind Speed Gust Speed Precip Events Conditions
12:15 AM 35.6 °F 29.2 °F 35.6 °F 100% 30.24 in 4.0 mi NNW 8.1 mph - 0.01 in Rain Light Rain
12:35 AM 35.6 °F 28.0 °F 35.6 °F 100% 30.23 in 4.0 mi NNW 10.4 mph - 0.02 in Rain Light Rain
12:55 AM 35.6 °F 28.6 °F 35.6 °F 100% 30.23 in 4.0 mi North 9.2 mph - 0.03 in Rain Rain
1:15 AM 35.6 °F 28.6 °F 35.6 °F 100% 30.22 in 5.0 mi North 9.2 mph - N/A   Drizzle
1:35 AM 35.6 °F 28.6 °F 35.6 °F 100% 30.22 in 5.0 mi North 9.2 mph - N/A   Drizzle
1:55 AM 35.6 °F 29.9 °F 35.6 °F 100% 30.22 in 5.0 mi NNE 6.9 mph - 0.01 in   Drizzle
2:15 AM 35.6 °F 29.9 °F 35.6 °F 100% 30.21 in 4.0 mi NNE 6.9 mph - N/A   Overcast
2:35 AM 35.6 °F 29.9 °F 35.6 °F 100% 30.20 in 5.0 mi NE 6.9 mph - N/A   Scattered Clouds
2:55 AM 35.6 °F 29.2 °F 35.6 °F 100% 30.20 in 4.0 mi NE 8.1 mph - N/A Rain Light Rain
3:15 AM 35.6 °F 29.9 °F 35.6 °F 100% 30.20 in 4.0 mi NE 6.9 mph - 0.01 in Rain Light Rain
3:35 AM 35.6 °F 30.7 °F 35.6 °F 100% 30.19 in 3.0 mi NNE 5.8 mph - 0.02 in Rain Light Rain
3:55 AM 37.4 °F 32.8 °F 35.6 °F 93% 30.19 in 4.0 mi NE 5.8 mph - 0.03 in Rain Light Rain
4:15 AM 37.4 °F 33.8 °F 37.4 °F 100% 30.19 in 4.0 mi NNE 4.6 mph - N/A Rain Light Rain
4:35 AM 37.4 °F 32.8 °F 37.4 °F 100% 30.19 in 4.0 mi NNE 5.8 mph - N/A   Drizzle
4:55 AM 37.4 °F 32.8 °F 37.4 °F 100% 30.19 in 4.0 mi North 5.8 mph - N/A   Drizzle
5:15 AM 37.4 °F 33.8 °F 37.4 °F 100% 30.19 in 4.0 mi North 4.6 mph - 0.01 in Rain Rain
5:35 AM 37.4 °F 34.9 °F 37.4 °F 100% 30.18 in 4.0 mi North 3.5 mph - 0.01 in   Drizzle
5:55 AM 37.4 °F 34.9 °F 37.4 °F 100% 30.18 in 4.0 mi North 3.5 mph - 0.01 in   Mostly Cloudy
6:17 AM 37.4 °F - 37.4 °F 100% 30.18 in 4.0 mi Calm Calm - N/A   Overcast
6:50 AM 37.4 °F 32.1 °F 37.4 °F 100% 30.19 in 5.0 mi North 6.9 mph - N/A   Overcast
7:50 AM 39.2 °F 35.0 °F 39.2 °F 100% 30.19 in 3.0 mi NNW 5.8 mph - N/A   Overcast
8:50 AM 39.2 °F 35.0 °F 39.2 °F 100% 30.19 in 4.0 mi NW 5.8 mph - N/A   Mostly Cloudy
9:50 AM 41.0 °F 35.2 °F 41.0 °F 100% 30.19 in 7.0 mi NW 9.2 mph - N/A   Mostly Cloudy
10:50 AM 46.4 °F 42.4 °F 42.8 °F 87% 30.19 in 10.0 mi WNW 8.1 mph - N/A   Mostly Cloudy
11:50 AM 48.2 °F - 39.2 °F 71% 30.21 in 7.0 mi North 8.1 mph - N/A   Mostly Cloudy
12:50 PM 46.4 °F 41.9 °F 39.2 °F 76% 30.20 in 10.0 mi NNW 9.2 mph - N/A   Overcast
2:50 PM 50.0 °F - 39.2 °F 66% 30.17 in 10.0 mi NNW 8.1 mph - N/A   Overcast
4:50 PM 51.8 °F - 39.2 °F 62% 30.14 in 10.0 mi NW 5.8 mph - N/A   Overcast
5:50 PM 53.6 °F - 41.0 °F 62% 30.14 in 10.0 mi NW 8.1 mph - N/A   Mostly Cloudy
7:50 PM 46.4 °F 42.4 °F 39.2 °F 76% 30.15 in 10.0 mi West 8.1 mph - N/A   Partly Cloudy
8:05 PM 42.8 °F 39.3 °F 39.2 °F 87% 30.15 in 10.0 mi WSW 5.8 mph - N/A   Clear
9:15 PM 41.0 °F 39.0 °F 37.4 °F 87% 30.16 in 10.0 mi West 3.5 mph - N/A   Clear
9:35 PM 41.0 °F 38.0 °F 37.4 °F 87% 30.16 in 10.0 mi West 4.6 mph - N/A   Clear
9:55 PM 41.0 °F 39.0 °F 35.6 °F 81% 30.16 in 10.0 mi West 3.5 mph - N/A   Clear
10:15 PM 39.2 °F 35.9 °F 37.4 °F 93% 30.17 in 10.0 mi West 4.6 mph - N/A   Clear
10:35 PM 39.2 °F 37.0 °F 35.6 °F 87% 30.17 in 10.0 mi West 3.5 mph - N/A   Clear
10:55 PM 39.2 °F 37.0 °F 35.6 °F 87% 30.17 in 10.0 mi West 3.5 mph - N/A   Clear
11:15 PM 39.2 °F 37.0 °F 35.6 °F 87% 30.17 in 10.0 mi West 3.5 mph - N/A   Clear
11:35 PM 39.2 °F 35.9 °F 35.6 °F 87% 30.17 in 10.0 mi West 4.6 mph - N/A   Clear
11:55 PM 37.4 °F - 35.6 °F 93% 30.17 in 10.0 mi Calm Calm - N/A   Clear